This is the latest recevied weather packets stored in our database for station/object SV8FES. If no packets are shown the sender has not sent any weather packets the latest 10 day(s).
| Time | Temp. | Humidity | Pressure | Rain* | Wind** | Luminosity | Snow |
|---|---|---|---|---|---|---|---|
| 1787749592 | 34.44° C | 34% | 1010.2 hPa | 0 mm | - | 631 W/m² | - |
| 1787749532 | 34.44° C | 34% | 1010.1 hPa | 0 mm | - | 635 W/m² | - |
| 1787749471 | 34.44° C | 34% | 1010.2 hPa | 0 mm | - | 636 W/m² | - |
| 1787749414 | 34.44° C | 34% | 1010.1 hPa | 0 mm | - | 638 W/m² | - |
| 1787749352 | 35° C | 34% | 1010.1 hPa | 0 mm | - | 640 W/m² | - |
| 1787749292 | 35° C | 34% | 1010.1 hPa | 0 mm | - | 643 W/m² | - |
| 1787749231 | 35° C | 34% | 1010.2 hPa | 0 mm | - | 647 W/m² | - |
| 1787749170 | 34.44° C | 34% | 1010.2 hPa | 0 mm | - | 647 W/m² | - |
| 1787749111 | 34.44° C | 34% | 1010.2 hPa | 0 mm | - | 649 W/m² | - |
| 1787749050 | 34.44° C | 34% | 1010.2 hPa | 0 mm | - | 652 W/m² | - |
| 1787748992 | 34.44° C | 34% | 1010.2 hPa | 0 mm | - | 654 W/m² | - |
| 1787748932 | 35° C | 34% | 1010.2 hPa | 0 mm | - | 654 W/m² | - |
| 1787748872 | 35° C | 33% | 1010.2 hPa | 0 mm | - | 659 W/m² | - |
| 1787748812 | 35.56° C | 33% | 1010.2 hPa | 0 mm | - | 661 W/m² | - |
| 1787748753 | 35.56° C | 33% | 1010.3 hPa | 0 mm | - | 663 W/m² | - |
| 1787748690 | 35.56° C | 33% | 1010.1 hPa | 0 mm | - | 664 W/m² | - |
| 1787748632 | 35.56° C | 33% | 1010.2 hPa | 0 mm | - | 666 W/m² | - |
| 1787748572 | 35.56° C | 33% | 1010 hPa | 0 mm | - | 671 W/m² | - |
| 1787748511 | 35.56° C | 33% | 1010.2 hPa | 0 mm | - | 671 W/m² | - |
| 1787748452 | 35.56° C | 33% | 1010.1 hPa | 0 mm | - | 673 W/m² | - |
| 1787748391 | 35.56° C | 33% | 1010.1 hPa | 0 mm | - | 677 W/m² | - |
| 1787748333 | 35.56° C | 33% | 1010.1 hPa | 0 mm | - | 679 W/m² | - |
| 1787748272 | 35.56° C | 33% | 1010 hPa | 0 mm | - | 680 W/m² | - |
| 1787748212 | 35.56° C | 33% | 1010 hPa | 0 mm | - | 684 W/m² | - |
| 1787748151 | 35.56° C | 33% | 1010.1 hPa | 0 mm | - | 684 W/m² | - |
* Rain latest hour (hover to see other rain measurements)
** Current wind speed in m/s (hover to see current wind gust speed)